| time (UTC) | temp F | wind direction | speed knots | gust knots | rain 1hr in | rain 24hr in | rain mn in | humidity % | barometer mb |
| 20260906171548 | 68 | 96 | 0.0 | 0.0 | 0.00 | 0.11 | 0.07 | 67 | 1018.6 |
| 20260906170054 | 68 | 297 | 0.0 | 0.0 | 0.00 | 0.11 | 0.07 | 72 | 1018.6 |
| 20260906164540 | 68 | 105 | 0.0 | 0.0 | 0.00 | 0.11 | 0.07 | 70 | 1018.7 |
| 20260906163043 | 67 | 89 | 0.0 | 0.0 | 0.00 | 0.11 | 0.07 | 75 | 1018.9 |
| 20260906161539 | 67 | 326 | 0.0 | 0.0 | 0.00 | 0.11 | 0.07 | 78 | 1019.0 |
| 20260906160040 | 67 | 108 | 0.0 | 0.0 | 0.00 | 0.11 | 0.07 | 77 | 1019.1 |
| 20260906154536 | 66 | 80 | 0.0 | 0.0 | 0.00 | 0.11 | 0.07 | 76 | 1019.4 |
| 20260906153031 | 65 | 226 | 0.0 | 0.0 | 0.00 | 0.11 | 0.07 | 79 | 1019.5 |
| 20260906151530 | 64 | 94 | 0.0 | 0.0 | 0.00 | 0.11 | 0.07 | 82 | 1019.6 |
| 20260906150030 | 64 | 84 | 0.0 | 0.0 | 0.00 | 0.11 | 0.07 | 82 | 1019.7 |
| 20260906144529 | 62 | 35 | 0.0 | 0.0 | 0.00 | 0.11 | 0.07 | 86 | 1019.9 |
| 20260906143029 | 62 | 35 | 0.0 | 0.0 | 0.00 | 0.11 | 0.07 | 84 | 1019.9 |
| 20260906141519 | 61 | 74 | 0.0 | 0.0 | 0.00 | 0.11 | 0.07 | 87 | 1019.9 |
| 20260906140030 | 61 | 74 | 0.0 | 0.0 | 0.00 | 0.11 | 0.07 | 89 | 1019.8 |
| 20260906134518 | 61 | 74 | 0.0 | 0.0 | 0.00 | 0.11 | 0.07 | 89 | 1019.9 |
| 20260906133016 | 61 | 74 | 0.0 | 0.0 | 0.00 | 0.11 | 0.07 | 90 | 1019.9 |
| 20260906131530 | 60 | 345 | 0.0 | 0.0 | 0.00 | 0.11 | 0.07 | 91 | 1019.9 |
| 20260906130012 | 59 | 319 | 0.0 | 0.0 | 0.00 | 0.11 | 0.07 | 93 | 1019.7 |
| 20260906124510 | 58 | 103 | 0.0 | 0.0 | 0.00 | 0.11 | 0.07 | 94 | 1019.8 |
| 20260906123009 | 58 | 355 | 0.0 | 0.0 | 0.00 | 0.11 | 0.07 | 95 | 1019.7 |
| 20260906121509 | 57 | 355 | 0.0 | 0.0 | 0.00 | 0.11 | 0.07 | 95 | 1019.6 |
| 20260906120008 | 57 | 95 | 0.0 | 0.0 | 0.00 | 0.11 | 0.07 | 95 | 1019.6 |
| 20260906114507 | 57 | 95 | 0.0 | 0.0 | 0.00 | 0.11 | 0.07 | 95 | 1019.4 |
| 20260906113005 | 56 | 95 | 0.0 | 0.0 | 0.00 | 0.11 | 0.07 | 95 | 1019.2 |
| 20260906111505 | 55 | 95 | 0.0 | 0.0 | 0.00 | 0.11 | 0.07 | 95 | 1019.0 |
| 20260906110003 | 55 | 95 | 0.0 | 0.0 | 0.00 | 0.11 | 0.07 | 95 | 1019.0 |
| 20260906104503 | 55 | 95 | 0.0 | 0.0 | 0.00 | 0.11 | 0.07 | 95 | 1018.9 |
| 20260906103001 | 55 | 95 | 0.0 | 0.0 | 0.00 | 0.11 | 0.07 | 95 | 1018.7 |
| 20260906101600 | 55 | 95 | 0.0 | 0.0 | 0.00 | 0.11 | 0.07 | 95 | 1018.6 |
| 20260906100059 | 55 | 95 | 0.0 | 0.0 | 0.00 | 0.11 | 0.07 | 95 | 1018.5 |
| 20260906094557 | 55 | 95 | 0.0 | 0.0 | 0.00 | 0.11 | 0.07 | 95 | 1018.3 |
| 20260906093056 | 55 | 95 | 0.0 | 0.0 | 0.00 | 0.11 | 0.07 | 94 | 1018.1 |
| 20260906091556 | 55 | 95 | 0.0 | 0.0 | 0.01 | 0.11 | 0.07 | 94 | 1018.1 |
| 20260906090058 | 56 | 95 | 0.0 | 0.0 | 0.04 | 0.11 | 0.07 | 94 | 1018.2 |
| 20260906084555 | 56 | 95 | 0.0 | 0.0 | 0.06 | 0.11 | 0.07 | 94 | 1018.2 |
| 20260906083054 | 56 | 95 | 0.0 | 0.0 | 0.07 | 0.11 | 0.07 | 94 | 1018.2 |
| 20260906081555 | 56 | 95 | 0.0 | 0.0 | 0.06 | 0.10 | 0.06 | 94 | 1018.4 |
| 20260906080052 | 56 | 95 | 0.0 | 0.0 | 0.03 | 0.07 | 0.03 | 94 | 1017.9 |
| 20260906074549 | 56 | 95 | 0.0 | 0.0 | 0.01 | 0.05 | 0.01 | 94 | 1017.8 |
| 20260906073048 | 56 | 95 | 0.0 | 0.0 | 0.00 | 0.04 | 0.00 | 94 | 1017.8 |
| 20260906071558 | 56 | 95 | 0.0 | 0.0 | 0.00 | 0.04 | 0.00 | 94 | 1017.7 |
| 20260906070045 | 57 | 95 | 0.0 | 0.0 | 0.00 | 0.04 | 0.00 | 94 | 1017.6 |
| 20260906064544 | 57 | 95 | 0.0 | 0.0 | 0.00 | 0.04 | 0.00 | 94 | 1017.5 |
| 20260906063044 | 57 | 95 | 0.0 | 0.0 | 0.00 | 0.04 | 0.00 | 94 | 1017.4 |
| 20260906061543 | 57 | 95 | 0.0 | 0.0 | 0.00 | 0.04 | 0.00 | 94 | 1017.4 |
| 20260906060042 | 57 | 95 | 0.0 | 0.0 | 0.00 | 0.04 | 0.00 | 94 | 1017.4 |
| 20260906054540 | 58 | 95 | 0.0 | 0.0 | 0.00 | 0.04 | 0.00 | 94 | 1017.3 |
| 20260906053042 | 58 | 95 | 0.0 | 0.0 | 0.00 | 0.04 | 0.00 | 94 | 1017.4 |
| 20260906051536 | 59 | 95 | 0.0 | 0.0 | 0.00 | 0.04 | 0.00 | 94 | 1017.5 |
| 20260906050035 | 59 | 95 | 0.0 | 0.0 | 0.00 | 0.04 | 0.00 | 94 | 1017.5 |
| 20260906044533 | 59 | 95 | 0.0 | 0.0 | 0.00 | 0.04 | 0.00 | 94 | 1017.3 |
| 20260906043033 | 59 | 95 | 0.0 | 0.0 | 0.00 | 0.04 | 0.00 | 94 | 1017.2 |
| 20260906041528 | 60 | 95 | 0.0 | 0.0 | 0.00 | 0.04 | 0.00 | 94 | 1017.3 |
| 20260906040030 | 60 | 95 | 0.0 | 0.0 | 0.00 | 0.04 | 0.04 | 94 | 1017.3 |
| 20260906034533 | 59 | 95 | 0.0 | 0.0 | 0.00 | 0.04 | 0.04 | 94 | 1017.2 |
| 20260906033027 | 59 | 95 | 0.0 | 0.0 | 0.00 | 0.04 | 0.04 | 94 | 1017.0 |
| 20260906031521 | 59 | 95 | 0.0 | 0.0 | 0.00 | 0.04 | 0.04 | 94 | 1016.7 |
| 20260906030021 | 59 | 95 | 0.0 | 0.0 | 0.00 | 0.04 | 0.04 | 94 | 1016.7 |
| 20260906024520 | 60 | 95 | 0.0 | 0.0 | 0.00 | 0.04 | 0.04 | 93 | 1016.7 |
| 20260906023019 | 60 | 95 | 0.0 | 0.0 | 0.00 | 0.04 | 0.04 | 93 | 1016.6 |
| 20260906021523 | 60 | 95 | 0.0 | 0.0 | 0.00 | 0.04 | 0.04 | 93 | 1016.7 |
| 20260906020020 | 61 | 95 | 0.0 | 0.0 | 0.00 | 0.04 | 0.04 | 93 | 1016.7 |
| 20260906014531 | 61 | 95 | 0.0 | 0.0 | 0.00 | 0.04 | 0.04 | 93 | 1016.8 |
| 20260906013018 | 61 | 95 | 0.0 | 0.0 | 0.00 | 0.04 | 0.04 | 93 | 1016.9 |
| 20260906011532 | 61 | 95 | 0.0 | 0.0 | 0.00 | 0.04 | 0.04 | 93 | 1016.9 |
| 20260906010016 | 61 | 94 | 0.0 | 0.0 | 0.00 | 0.04 | 0.04 | 93 | 1016.8 |
| 20260906004526 | 61 | 95 | 0.0 | 0.0 | 0.00 | 0.04 | 0.04 | 93 | 1016.8 |
| 20260906003014 | 61 | 95 | 0.0 | 0.0 | 0.00 | 0.04 | 0.04 | 92 | 1016.6 |
| 20260906001512 | 61 | 95 | 0.0 | 0.0 | 0.00 | 0.04 | 0.04 | 92 | 1016.5 |
| 20260906000012 | 61 | 95 | 0.0 | 0.0 | 0.00 | 0.04 | 0.04 | 92 | 1016.3 |
| 20260905234511 | 62 | 95 | 0.0 | 0.0 | 0.00 | 0.04 | 0.04 | 91 | 1016.3 |
| 20260905233010 | 62 | 95 | 0.0 | 0.0 | 0.00 | 0.04 | 0.04 | 91 | 1016.1 |
| 20260905231510 | 63 | 95 | 0.0 | 0.0 | 0.00 | 0.04 | 0.04 | 91 | 1016.2 |
| 20260905230014 | 63 | 95 | 0.0 | 0.0 | 0.00 | 0.04 | 0.04 | 90 | 1016.2 |
| 20260905224520 | 64 | 95 | 0.0 | 0.0 | 0.00 | 0.04 | 0.04 | 90 | 1016.2 |
| 20260905223008 | 64 | 95 | 0.0 | 0.0 | 0.00 | 0.04 | 0.04 | 90 | 1016.0 |
| 20260905221506 | 64 | 95 | 0.0 | 0.0 | 0.00 | 0.04 | 0.04 | 89 | 1015.9 |
| 20260905220005 | 65 | 95 | 0.0 | 0.0 | 0.00 | 0.04 | 0.04 | 88 | 1015.6 |
| 20260905214502 | 65 | 95 | 0.0 | 0.0 | 0.00 | 0.04 | 0.04 | 87 | 1015.3 |
| 20260905213001 | 65 | 95 | 0.0 | 0.0 | 0.00 | 0.04 | 0.04 | 87 | 1015.4 |
| 20260905211501 | 65 | 102 | 0.0 | 0.0 | 0.00 | 0.04 | 0.04 | 88 | 1015.4 |
| 20260905210100 | 65 | 91 | 0.0 | 0.0 | 0.00 | 0.04 | 0.04 | 89 | 1015.2 |
| 20260905204603 | 65 | 94 | 0.0 | 0.0 | 0.00 | 0.04 | 0.04 | 88 | 1015.0 |
| 20260905203101 | 65 | 93 | 0.0 | 0.0 | 0.00 | 0.04 | 0.04 | 89 | 1015.1 |
| 20260905201558 | 65 | 89 | 0.0 | 0.0 | 0.00 | 0.04 | 0.04 | 88 | 1015.0 |
| 20260905200105 | 65 | 86 | 0.0 | 0.0 | 0.01 | 0.04 | 0.04 | 90 | 1014.9 |
| 20260905194556 | 65 | 96 | 0.0 | 0.0 | 0.04 | 0.04 | 0.04 | 91 | 1014.9 |
| 20260905193107 | 64 | 58 | 0.0 | 0.0 | 0.04 | 0.04 | 0.04 | 90 | 1014.8 |
| 20260905191559 | 64 | 85 | 0.0 | 0.0 | 0.04 | 0.04 | 0.04 | 89 | 1014.9 |
| 20260905190059 | 65 | 75 | 0.0 | 0.0 | 0.03 | 0.03 | 0.03 | 87 | 1014.9 |
| 20260905184552 | 68 | 304 | 0.0 | 0.0 | 0.00 | 0.00 | 0.00 | 79 | 1014.9 |
| 20260905183056 | 71 | 338 | 0.0 | 0.0 | 0.00 | 0.00 | 0.00 | 74 | 1014.4 |
| 20260905181550 | 70 | 325 | 0.0 | 0.0 | 0.00 | 0.00 | 0.00 | 76 | 1014.2 |
| 20260905180053 | 70 | 61 | 0.0 | 0.0 | 0.00 | 0.00 | 0.00 | 74 | 1014.3 |
| 20260905174548 | 71 | 106 | 0.0 | 0.0 | 0.00 | 0.00 | 0.00 | 73 | 1014.3 |
| 20260905173050 | 70 | 83 | 0.0 | 0.0 | 0.00 | 0.00 | 0.00 | 76 | 1014.4 |